Weather History for Chico, CA

Change the Weather History Date:

Friday, June 21, 2013

  Actual Average (KOVE) Record (KOVE)
Temperature  
Mean Temperature 74 °F -  
Max Temperature 89 °F 92 °F 108 °F (1961)
Min Temperature 59 °F 60 °F 51 °F (1991)
Cooling Degree Days 9    
Growing Degree Days 24 (Base 50)    
Moisture  
Dew Point 37 °F    
Average Humidity 31    
Maximum Humidity 48    
Minimum Humidity 13    
Precipitation  
Precipitation 0.00 in - - ()
Sea Level Pressure  
Sea Level Pressure 29.92 in    
Wind  
Wind Speed 5 mph (NNE)    
Max Wind Speed 23 mph    
Max Gust Speed -    
Visibility 10 miles    
Events      
Averages and records for this station are not official NWS values.
T = Trace of Precipitation, MM = Missing Value Source: NWS Daily Summary

Daily Weather History Graph

Daily Weather History Graph

Search for Another Location

Airport:

Trip Planner

Search our weather history database for the weather conditions in past years. The results will help you decide how hot, cold, wet, or windy it might be!

Date:

Astronomy

Jun. 21, 2013 Rise Set
Actual Time 5:39 AM PDT 8:39 PM PDT
Civil Twilight 5:06 AM PDT 9:11 PM PDT
Nautical Twilight 4:25 AM PDT 9:53 PM PDT
Astronomical Twilight 3:36 AM PDT 10:41 PM PDT
Moon 6:55 PM PDT (6/21) 3:59 AM PDT (6/21)
Length of Visible Light 16h 05m
Length of Day
14h 59m
Waxing Gibbous, 96% of the Moon is Illuminated
Jun 21
Waxing Gibbous
Jun 23
Full
Jun 29
Last Quarter
Jul 8
New
Jul 15
First Quarter

Hourly Weather History & Observations

Time (PDT) Temp. Dew Point Humidity Pressure Visibility Wind Dir Wind Speed Gust Speed Precip Events Conditions
12:15 AM 68.0 °F 39.2 °F 35% 29.94 in 10.0 mi East 4.6 mph - N/A   Clear
12:35 AM 68.0 °F 39.2 °F 35% 29.93 in 10.0 mi NE 3.5 mph - N/A   Clear
12:55 AM 68.0 °F 39.2 °F 35% 29.93 in 10.0 mi ENE 5.8 mph - N/A   Clear
1:15 AM 68.0 °F 39.2 °F 35% 29.93 in 10.0 mi ENE 4.6 mph - N/A   Clear
1:35 AM 66.2 °F 39.2 °F 37% 29.93 in 10.0 mi NE 6.9 mph - N/A   Clear
1:55 AM 66.2 °F 39.2 °F 37% 29.93 in 10.0 mi NE 5.8 mph - N/A   Clear
2:15 AM 66.2 °F 39.2 °F 37% 29.93 in 10.0 mi NE 5.8 mph - N/A   Clear
2:35 AM 66.2 °F 39.2 °F 37% 29.93 in 10.0 mi NNE 3.5 mph - N/A   Clear
2:55 AM 62.6 °F 39.2 °F 42% 29.94 in 10.0 mi Calm Calm - N/A   Clear
3:15 AM 64.4 °F 39.2 °F 40% 29.94 in 10.0 mi Calm Calm - N/A   Clear
3:35 AM 62.6 °F 39.2 °F 42% 29.93 in 10.0 mi Calm Calm - N/A   Clear
3:55 AM 62.6 °F 39.2 °F 42% 29.93 in 10.0 mi Calm Calm - N/A   Clear
4:15 AM 62.6 °F 39.2 °F 42% 29.93 in 10.0 mi ESE 3.5 mph - N/A   Clear
4:35 AM 60.8 °F 39.2 °F 45% 29.94 in 10.0 mi Calm Calm - N/A   Clear
4:55 AM 60.8 °F 39.2 °F 45% 29.93 in 10.0 mi Calm Calm - N/A   Clear
5:15 AM 60.8 °F 39.2 °F 45% 29.93 in 10.0 mi Calm Calm - N/A   Clear
5:35 AM 60.8 °F 39.2 °F 45% 29.93 in 10.0 mi Calm Calm - N/A   Clear
5:55 AM 59.0 °F 39.2 °F 48% 29.94 in 10.0 mi Calm Calm - N/A   Clear
6:15 AM 59.0 °F 39.2 °F 48% 29.95 in 10.0 mi Calm Calm - N/A   Clear
6:35 AM 60.8 °F 39.2 °F 45% 29.95 in 10.0 mi Calm Calm - N/A   Clear
6:50 AM 62.6 °F 39.2 °F 42% 29.95 in 80.0 mi North 5.8 mph - N/A   Clear
6:55 AM 62.6 °F 39.2 °F 42% 29.95 in 10.0 mi North 3.5 mph - N/A   Clear
7:15 AM 64.4 °F 39.2 °F 40% 29.95 in 10.0 mi Calm Calm - N/A   Clear
7:35 AM 64.4 °F 39.2 °F 40% 29.95 in 10.0 mi NW 3.5 mph - N/A   Clear
7:50 AM 66.2 °F 39.2 °F 37% 29.95 in 80.0 mi West 4.6 mph - N/A   Clear
8:50 AM 73.4 °F 39.2 °F 29% 29.96 in 80.0 mi NW 9.2 mph - N/A   Partly Cloudy
9:58 AM 77.0 °F 39.2 °F 26% 29.95 in 80.0 mi North 11.5 mph - N/A   Partly Cloudy
10:50 AM 80.6 °F 39.2 °F 23% 29.95 in 80.0 mi NW 13.8 mph - N/A   Partly Cloudy
11:50 AM 82.4 °F 37.4 °F 20% 29.94 in 80.0 mi NW 16.1 mph - N/A   Partly Cloudy
12:58 PM 82.4 °F 37.4 °F 20% 29.93 in 80.0 mi NW 23.0 mph - N/A   Partly Cloudy
1:50 PM 86.0 °F 35.6 °F 17% 29.92 in 80.0 mi NW 13.8 mph - N/A   Partly Cloudy
2:58 PM 86.0 °F 32.0 °F 14% 29.90 in 80.0 mi North 11.5 mph - N/A   Partly Cloudy
3:50 PM 87.8 °F 32.0 °F 14% 29.89 in 80.0 mi West 13.8 mph - N/A   Partly Cloudy
5:52 PM 89.6 °F 32.0 °F 13% 29.86 in 80.0 mi WSW 11.5 mph - N/A   Partly Cloudy
6:50 PM 87.8 °F 32.0 °F 14% 29.85 in 80.0 mi WSW 11.5 mph - N/A   Partly Cloudy
7:55 PM 84.2 °F 35.6 °F 18% 29.85 in 10.0 mi WSW 5.8 mph - N/A   Clear
8:15 PM 84.2 °F 37.4 °F 19% 29.86 in 10.0 mi WSW 5.8 mph - N/A   Clear
8:35 PM 80.6 °F 41.0 °F 24% 29.86 in 10.0 mi SW 6.9 mph - N/A   Clear
8:55 PM 82.4 °F 35.6 °F 19% 29.87 in 10.0 mi SE 3.5 mph - N/A   Clear
9:15 PM 80.6 °F 41.0 °F 24% 29.87 in 10.0 mi SE 3.5 mph - N/A   Clear
9:35 PM 80.6 °F 41.0 °F 24% 29.88 in 10.0 mi SE 3.5 mph - N/A   Clear
9:55 PM 77.0 °F 35.6 °F 22% 29.88 in 10.0 mi ENE 3.5 mph - N/A   Clear
10:15 PM 75.2 °F 33.8 °F 22% 29.89 in 7.0 mi ENE 4.6 mph - N/A   Clear
10:35 PM 75.2 °F 32.0 °F 21% 29.89 in 10.0 mi ENE 4.6 mph - N/A   Clear
10:55 PM 73.4 °F 32.0 °F 22% 29.89 in 10.0 mi Calm Calm - N/A   Clear
11:15 PM 73.4 °F 32.0 °F 22% 29.89 in 10.0 mi ENE 3.5 mph - N/A   Clear
11:35 PM 71.6 °F 32.0 °F 23% 29.89 in 10.0 mi Calm Calm - N/A   Clear
11:55 PM 71.6 °F 32.0 °F 23% 29.89 in 10.0 mi NNE 3.5 mph - N/A   Clear